Weather Roundup
Issued by NWS Springfield, MO

Home | Current Version | Previous Version | Text Only | Print | Product List | Glossary On
Versions: 1 2 3 4 5 6 7 8 9 10 11 12 13 14 15 16 17 18 19 20 21 22 23 24 25 26 27 28 29 30 31 32 33 34 35 36 37 38 39 40 41 42 43 44 45 46 47 48 49 50
000
NZUS99 KSGF 281307
HRRSGF

HOURLY WEATHER
NATIONAL WEATHER SERVICE SPRINGFIELD MO
700 AM CST SAT FEB 28 2015

......SGF CWA......

CITY           SKY/WX    TMP DP  RH WIND       PRES   REMARKS
SPRINGFIELD    LGT SNOW  20  13  74 SE8       30.48R WCI  10
JOPLIN         LGT SNOW  20  15  81 E7        30.47F WCI  11
WEST PLAINS    LGT SNOW  18  11  74 E7        30.52S WCI   9
ROLLA          CLOUDY    17   8  67 E9        30.53S WCI   6
OSAGE BEACH    CLOUDY    21   5  49 E6        30.55S WCI  14
BRANSON        LGT SNOW  19  16  86 SE8       30.49R WCI   9

......SURROUNDING SGF CWA......

CITY           SKY/WX    TMP DP  RH WIND       PRES   REMARKS
CHANUTE        CLOUDY    20  14  77 SE8       30.46F WCI  10
PARSONS        LGT SNOW  21  15  78 VRB3      30.47F
COFFEYVILLE    LGT SNOW  20  15  81 E8        30.47F WCI  10
EMPORIA        FLURRIES  17   9  70 SE8       30.44S WCI   7
GROVE OK       LGT SNOW  23  19  86 E3        30.49F
ROGERS AR      LGT SNOW  19  16  88 E7        30.45F FOG     WCI  10
SILOAM SPRINGS CLOUDY    19  12  73 E7        30.45F WCI  10
HARRISON AR    FLURRIES  17  14  88 SE9       30.49R WCI   6
NEAR YELLVILLE MOCLDY    19  12  73 E3        30.53S

......KANSAS AND MISSOURI......

CITY           SKY/WX    TMP DP  RH WIND       PRES   REMARKS
KANSAS CTY INT MOCLDY    16   9  74 SE9       30.50F WCI   4
DOWNTOWN KC    MOCLDY    18  10  71 E8        30.52F WCI   8
COLUMBIA       CLOUDY    16  11  80 E7        30.57S WCI   6
SEDALIA        CLOUDY    19   9  65 E8        30.55F WCI   9
ST JOSEPH      CLEAR     14   7  73 E5        30.54S WCI   6
ST LOUIS       CLOUDY    17   6  62 E7        30.64S WCI   8
SPIRIT OF STL  CLOUDY    17   4  56 E7        30.64R WCI   8
KIRKSVILLE     CLOUDY    11   3  70 SE6       30.58S WCI   1
WICHITA        LGT SNOW  17  13  84 SE7       30.42R VSB 1   WCI   8
TOPEKA         CLOUDY    16   8  71 E5        30.49F WCI   9
OLATHE         CLOUDY    17   8  67 E6        30.48F WCI   9

......TENNESSEE......

CITY           SKY/WX    TMP DP  RH WIND       PRES   REMARKS
MEMPHIS        CLOUDY    30  13  49 NE8       30.54S WCI  22
NASHVILLE      CLOUDY    26  11  52 NE7       30.60R WCI  18

......ARKANSAS.......

CITY           SKY/WX    TMP DP  RH WIND       PRES   REMARKS
FAYETTEVILLE   LGT SNOW  19  17  92 E5        30.45F FOG     WCI  12
FT SMITH       CLOUDY    23  19  85 E10       30.50S FOG     WCI  12
LITTLE ROCK    CLOUDY    27  17  66 NE9       30.55R WCI  18

......OKLAHOMA.......

CITY           SKY/WX    TMP DP  RH WIND       PRES   REMARKS
TULSA          LGT SNOW  21  19  92 E5        30.47F FOG     WCI  15
PONCA CITY     LGT SNOW  19  16  88 SE5       30.45R VSB 3/4 WCI  12
MCALESTER      LGT SNOW  23  19  85 NE5       30.45S FOG     WCI  17
OKLAHOMA CITY  LGT SNOW  20  14  77 E6        30.38F WCI  12

......IOWA............

CITY           SKY/WX    TMP DP  RH WIND       PRES   REMARKS
DES MOINES     MOCLDY     3  -5  69 SE7       30.56S WCI  -9
QUAD CITIES    MOCLDY   -13 -19  75 E3        30.67F

......ILLINOIS........

CITY           SKY/WX    TMP DP  RH WIND       PRES   REMARKS
QUINCY         CLOUDY     7  -2  66 E7        30.62S WCI  -5
CHICAGO        MOCLDY    -6  -8  91 CALM      30.70R



USA.gov is the U.S. government's official web portal to all federal, state and local government web resources and services.